Meteo Giornale » Osservazioni meteo Svizzera » Grenchen

ore: 00:50 - Osservazioni Meteo Grenchen
Lat. 47° 10' N Lon. 7° 24' E Alt. 430 metri s.l.m.

molto_nuvoloso Europe/Zurich

5 °C

Molto Nuvoloso

Temp. 24 Ore

1 °C

8 °C

Sud-Ovest

14.8 Km/h

Dew point 1 °C

Umidità 75 %

Visibilità  10 Km

Il sole sorge alle ore 07:50

Il sole tramonta alle ore 17:38

Data e Ora Cielo e Fenomeni T °C DP °C Um. % Pres. hPa Vis. km Vento km/h
Oggi h: 00:50 molto_nuvoloso Molto Nuvoloso 5 1 75 1034 10 SO 14.8
Oggi h: 00:20 molto_nuvoloso Molto Nuvoloso 5 1 75 1034 10 SO 20.3
Ieri h: 23:50 coperto Coperto 5 1 75 1033 10 S 14.8
Ieri h: 23:20 molto_nuvoloso Molto Nuvoloso 4 1 80 1033 10 S/SO 13
Ieri h: 22:50 sereno Sereno 5 1 75 1033 10 O/SO 16.7
Ieri h: 22:20 sereno Sereno 5 1 75 1033 10 O/SO 14.8
Ieri h: 21:50 sereno Sereno 6 1 70 1033 10 O/SO 16.7
Ieri h: 21:20 poco_nuvoloso Poco Nuvoloso 6 1 70 1033 10 O/SO 13
Ieri h: 20:50 molto_nuvoloso Molto Nuvoloso 7 1 65 1034 10 O 16.7
Ieri h: 20:20 poco_nuvoloso Poco Nuvoloso 6 1 70 1033 10 O 16.7
Ieri h: 19:50 sereno Sereno 5 0 70 1033 10 O 16.7
Ieri h: 19:20 sereno Sereno 6 1 70 1033 10 O/SO 20.3
Ieri h: 18:50 sereno Sereno 6 1 70 1033 10 O 22.2
Ieri h: 18:20 poco_nuvoloso Poco Nuvoloso 6 1 70 1033 10 O/SO 22.2
Ieri h: 17:50 poco_nuvoloso Poco Nuvoloso 7 0 60 1033 10 O 22.2
Ieri h: 17:20 poco_nuvoloso Poco Nuvoloso 7 0 60 1033 10 NO 25.9
Ieri h: 16:50 poco_nuvoloso Poco Nuvoloso 7 1 65 1033 10 O/NO 11.1
Ieri h: 16:20 poco_nuvoloso Poco Nuvoloso 7 1 65 1032 10 O 14.8
Ieri h: 15:50 poco_nuvoloso Poco Nuvoloso 7 1 65 1032 10 O 20.3
Ieri h: 15:20 poco_nuvoloso Poco Nuvoloso 8 1 61 1032 10 O 20.3
Ieri h: 14:50 poco_nuvoloso Poco Nuvoloso 8 0 56 1032 10 O 18.5
Ieri h: 14:20 poco_nuvoloso Poco Nuvoloso 8 0 56 1033 10 O/NO 22.2
Ieri h: 13:50 poco_nuvoloso Poco Nuvoloso 8 1 61 1033 10 O/SO 14.8
Ieri h: 13:20 poco_nuvoloso Poco Nuvoloso 8 2 65 1033 10 SO 16.7
Ieri h: 12:50 poco_nuvoloso Poco Nuvoloso 7 2 70 1033 10 SO 18.5
Ieri h: 12:20 poco_nuvoloso Poco Nuvoloso 7 1 65 1034 10 SO 20.3
Ieri h: 11:50 poco_nuvoloso Poco Nuvoloso 6 2 75 1034 10 SO 16.7
Ieri h: 11:20 poco_nuvoloso Poco Nuvoloso 6 2 75 1034 10 SO 18.5
Ieri h: 10:50 poco_nuvoloso Poco Nuvoloso 5 1 75 1034 10 O/SO 16.7
Ieri h: 10:20 poco_nuvoloso Poco Nuvoloso 4 1 80 1035 10 O/SO 7.4
Ieri h: 09:50 nuvoloso Nuvoloso 3 1 86 1035 10 N 3.7
Ieri h: 09:20 nuvoloso Nuvoloso 2 1 93 1034 10 NO 7.4
Ieri h: 08:50 sereno Sereno 2 0 86 1034 10 S/SO 7.4
Ieri h: 08:20 molto_nuvoloso Molto Nuvoloso 1 -0 93 1034 10 N 1.8
Ieri h: 07:50 molto_nuvoloso Molto Nuvoloso 1 0 93 1034 10 N 1.8
Ieri h: 07:20 coperto Coperto 1 0 93 1034 10 N 5.5
Ieri h: 06:50 nuvoloso Nuvoloso 1 0 93 1034 10 N 3.7
Ieri h: 06:20 sereno Sereno 1 0 93 1033 10 N 5.5
Ieri h: 05:50 nuvoloso Nuvoloso 1 0 93 1033 10 N 3.7
Ieri h: 05:20 nuvoloso Nuvoloso 1 0 93 1033 10 N 5.5
Ieri h: 04:50 molto_nuvoloso Molto Nuvoloso 2 1 93 1034 10 SO 13
Ieri h: 04:20 coperto Coperto 2 1 93 1034 10 SO 7.4
Ieri h: 03:50 coperto Coperto 2 1 93 1034 10 SO 7.4
Ieri h: 03:20 molto_nuvoloso Molto Nuvoloso 2 1 93 1034 10 S/SO 7.4
Ieri h: 02:50 molto_nuvoloso Molto Nuvoloso 2 0 86 1034 10 O/SO 7.4
Ieri h: 02:20 coperto Coperto 2 0 86 1034 10 O/SO 11.1
Ieri h: 01:50 molto_nuvoloso Molto Nuvoloso 3 1 86 1033 10 O/SO 9.3
Ieri h: 01:20 molto_nuvoloso Molto Nuvoloso 2 1 93 1033 10 N 5.5
Ieri h: 00:50 molto_nuvoloso Molto Nuvoloso 4 1 80 1034 10 S/SO 9.3